Home > Weather > Rotterdam > Past weeks

Flag for Netherlands Weather for the Past 2 Weeks in Rotterdam, Netherlands

Now
50 °F

Clear.


Feels Like: 44 °F
Forecast: 45 / 49 °F
Wind: 18 mph from South

Location: Rotterdam Zestienhoven Airport

Current Time: Feb 7, 2016 at 1:23:39 AM

Latest Report: Feb 7, 2016 at 12:55 AM


Visibility: N/A

Pressure: 29.36 "Hg

Humidity: 71%

Dew point: 41 °F

Location of RotterdamLocation

Historic Weather in Rotterdam — Graph

°F

Rotterdam Temperature Yesterday

Maximum temperature yesterday: 52 °F (at 3:55 PM)
Minimum temperature yesterday: 46 °F (at 8:25 AM)
Average temperature yesterday: 49 °F

High & Low Weather Summary for the Past Weeks

 TemperatureHumidityPressure
High57 °F (Jan 25, 2:25 PM)100% (Jan 22, 11:25 PM)30.48 "Hg (Jan 22, 11:25 PM)
Low36 °F (Feb 3, 11:55 PM)57% (Jan 30, 9:55 PM)29.39 "Hg (Feb 6, 11:25 PM)
Average47 °F84%30.04 "Hg
* Reported Jan 22 11:25 PM — Feb 6 11:55 PM, Rotterdam, Weather by CustomWeather, © 2016

Note: Actual official high and low records may vary slightly from our data, if they occured in-between our weather recording intervals... More about our weather records

Advertising

Rotterdam Weather History for the Previous 24 Hours

 ConditionsComfort  
Time TempWeatherWind HumidityBarometerVisibility
11:55 PM
Sat, Feb 6
50 °FCool.16 mph71%29.39 "HgN/A
11:25 PM50 °FClear.18 mph71%29.39 "HgN/A
10:55 PM50 °FClear.16 mph71%29.42 "HgN/A
9:55 PM50 °FClear.15 mph71%29.45 "HgN/A
9:25 PM50 °FClear.14 mph71%29.45 "HgN/A
8:55 PM50 °FClear.14 mph71%29.47 "HgN/A
8:25 PM50 °FClear.14 mph71%29.50 "HgN/A
7:55 PM50 °FClear.14 mph71%29.50 "HgN/A
7:25 PM50 °FClear.10 mph71%29.53 "HgN/A
6:55 PM50 °FClear.15 mph76%29.53 "HgN/A
6:25 PM50 °FPassing clouds.14 mph76%29.56 "HgN/A
5:55 PM50 °FPassing clouds.15 mph76%29.56 "HgN/A
5:25 PM52 °FPartly sunny.17 mph72%29.59 "HgN/A
4:55 PM52 °FOvercast.17 mph72%29.59 "HgN/A
4:25 PM52 °FPartly sunny.17 mph72%29.59 "HgN/A
3:55 PM52 °FMore clouds than sun.18 mph72%29.62 "HgN/A
3:25 PM50 °FMostly cloudy.20 mph76%29.62 "HgN/A
2:55 PM50 °FMostly cloudy.18 mph76%29.65 "HgN/A
2:25 PM50 °FOvercast.20 mph76%29.68 "HgN/A
1:55 PM50 °FMore clouds than sun.20 mph76%29.68 "HgN/A
1:25 PM50 °FMore clouds than sun.17 mph76%29.71 "HgN/A
12:55 PM50 °FMostly cloudy.20 mph76%29.71 "HgN/A
12:25 PM50 °FOvercast.17 mph76%29.74 "HgN/A
11:55 AM50 °FScattered clouds.18 mph82%29.74 "HgN/A
11:25 AM48 °FPartly sunny.18 mph82%29.74 "HgN/A
10:55 AM48 °FOvercast.17 mph82%29.77 "HgN/A
10:25 AM48 °FOvercast.18 mph87%29.77 "HgN/A
9:55 AM48 °FMore clouds than sun.17 mph82%29.77 "HgN/A
9:25 AM48 °FOvercast.17 mph82%29.80 "HgN/A
8:55 AM48 °FOvercast.15 mph82%29.80 "HgN/A
8:25 AM46 °FCool.15 mph87%29.80 "HgN/A
7:55 AM48 °FPassing clouds.15 mph87%29.80 "HgN/A
7:25 AM48 °FPassing clouds.13 mph87%29.80 "HgN/A
6:55 AM48 °FOvercast.14 mph87%29.80 "HgN/A
6:25 AM48 °FPassing clouds.13 mph87%29.83 "HgN/A
5:55 AM48 °FMostly cloudy.13 mph87%29.83 "HgN/A
4:55 AM48 °FOvercast.10 mph94%29.86 "HgN/A
4:25 AM48 °FPartly cloudy.10 mph94%29.86 "HgN/A
3:55 AM48 °FOvercast.14 mph94%29.89 "Hg6 mi
2:55 AM48 °FOvercast.15 mph87%29.89 "HgN/A
2:25 AM48 °FOvercast.15 mph87%29.92 "HgN/A
1:25 AM48 °FPassing clouds.15 mph87%29.95 "HgN/A
Weather by CustomWeather, © 2016

See weather overviewHow to use our weather pages